User: anonymous   Login
Location: Unspecified
(0.0000°N, 0.0000°E)
Time: 16:34:09
(UTC+02:00)
Language:

Palapa 6 Rocket - Orbit

View from above orbital plane
View from above orbital plane
View from above satellite
View from above satellite

Ground track
Ground track

The orbit data is extracted from the following two-line orbital elements,

1 20571U 90034B   15141.15410398  .00002179  00000-0  28613-3 0  9996
2 20571 022.7482 026.2162 0512665 001.7060 162.2213 14.10868131284813
Epoch (UTC): 21 May 2015 03:41:54
Eccentricity: 0.0512665
inclination: 22.7482°
perigee height: 485 km
apogee height: 1227 km
right ascension of ascending node: 26.2162°
argument of perigee: 1.7060°
revolutions per day: 14.10868131
mean anomaly at epoch: 162.2213°
orbit number at epoch: 28481

The dashed part of the orbit path shows where the satellite is in the earth's shadow,  

DLR